Wetterdaten: Donnerstag, 12.09.2013
Datum Zeit Temp. Auen Feucht Auen Luftdruck Regen Richtung Richtung Windben
12.09.2013 00:00 10,2 C 90 % 1015,9 hPa 0,0 mm N 349 0,0 km/h (0 Bft)
12.09.2013 00:05 10,2 C 90 % 1015,8 hPa 0,0 mm N 349 1,6 km/h (1 Bft)
12.09.2013 00:10 10,1 C 90 % 1015,9 hPa 0,0 mm W-NW 298 3,2 km/h (1 Bft)
12.09.2013 00:15 10,0 C 90 % 1015,9 hPa 0,0 mm W-NW 298 3,2 km/h (1 Bft)
12.09.2013 00:20 10,1 C 91 % 1015,9 hPa 0,0 mm W-NW 298 0,0 km/h (0 Bft)
12.09.2013 00:25 10,0 C 91 % 1015,9 hPa 0,0 mm W-NW 298 0,0 km/h (0 Bft)
12.09.2013 00:30 10,0 C 91 % 1015,9 hPa 0,0 mm W-NW 298 0,0 km/h (0 Bft)
12.09.2013 00:35 9,9 C 91 % 1015,8 hPa 0,0 mm W-NW 298 0,0 km/h (0 Bft)
12.09.2013 00:40 9,8 C 91 % 1015,8 hPa 0,0 mm W-NW 298 0,0 km/h (0 Bft)
12.09.2013 00:45 9,7 C 91 % 1015,8 hPa 0,0 mm W-NW 298 0,0 km/h (0 Bft)
12.09.2013 00:50 9,7 C 91 % 1015,7 hPa 0,0 mm W-NW 298 0,0 km/h (0 Bft)
12.09.2013 00:55 9,6 C 91 % 1015,6 hPa 0,0 mm W-NW 298 0,0 km/h (0 Bft)
12.09.2013 01:00 9,4 C 91 % 1015,7 hPa 0,0 mm W-NW 298 0,0 km/h (0 Bft)
12.09.2013 01:05 9,2 C 91 % 1015,6 hPa 0,0 mm W-NW 298 1,6 km/h (1 Bft)
12.09.2013 01:10 9,2 C 91 % 1015,6 hPa 0,0 mm W-NW 290 3,2 km/h (1 Bft)
12.09.2013 01:15 9,1 C 91 % 1015,7 hPa 0,0 mm W-NW 290 0,0 km/h (0 Bft)
12.09.2013 01:20 8,7 C 91 % 1015,7 hPa 0,0 mm N 0 0,0 km/h (0 Bft)
12.09.2013 01:25 8,7 C 91 % 1015,6 hPa 0,0 mm N 0 0,0 km/h (0 Bft)
12.09.2013 01:30 8,8 C 91 % 1015,5 hPa 0,0 mm W-NW 290 0,0 km/h (0 Bft)
12.09.2013 01:35 8,6 C 91 % 1015,5 hPa 0,0 mm W-NW 290 0,0 km/h (0 Bft)
12.09.2013 01:40 8,3 C 91 % 1015,5 hPa 0,0 mm W-NW 290 0,0 km/h (0 Bft)
12.09.2013 01:45 8,2 C 91 % 1015,5 hPa 0,0 mm W-NW 290 0,0 km/h (0 Bft)
12.09.2013 01:50 8,2 C 91 % 1015,5 hPa 0,0 mm W-NW 290 0,0 km/h (0 Bft)
12.09.2013 01:55 7,7 C 91 % 1015,6 hPa 0,0 mm W-NW 290 0,0 km/h (0 Bft)
12.09.2013 02:00 7,8 C 91 % 1015,5 hPa 0,0 mm W-NW 290 0,0 km/h (0 Bft)
12.09.2013 02:05 7,7 C 91 % 1015,6 hPa 0,0 mm W-NW 290 0,0 km/h (0 Bft)
12.09.2013 02:10 7,7 C 91 % 1015,6 hPa 0,0 mm W-NW 290 0,0 km/h (0 Bft)
12.09.2013 02:15 7,9 C 92 % 1015,6 hPa 0,0 mm W-NW 290 0,0 km/h (0 Bft)
12.09.2013 02:20 8,1 C 92 % 1015,6 hPa 0,0 mm W-NW 290 0,0 km/h (0 Bft)
12.09.2013 02:25 8,1 C 92 % 1015,5 hPa 0,0 mm W-NW 290 0,0 km/h (0 Bft)
12.09.2013 02:30 8,1 C 92 % 1015,4 hPa 0,0 mm W-NW 290 0,0 km/h (0 Bft)
12.09.2013 02:35 8,2 C 92 % 1015,5 hPa 0,0 mm W-NW 290 0,0 km/h (0 Bft)
12.09.2013 02:40 8,3 C 92 % 1015,4 hPa 0,0 mm W-NW 290 0,0 km/h (0 Bft)
12.09.2013 02:45 8,4 C 92 % 1015,4 hPa 0,0 mm W-NW 289 1,6 km/h (1 Bft)
12.09.2013 02:50 8,6 C 92 % 1015,4 hPa 0,0 mm W-NW 289 1,6 km/h (1 Bft)
12.09.2013 02:55 8,7 C 92 % 1015,3 hPa 0,0 mm W-NW 289 1,6 km/h (1 Bft)
12.09.2013 03:00 8,7 C 92 % 1015,2 hPa 0,0 mm W-NW 289 1,6 km/h (1 Bft)
12.09.2013 03:05 8,8 C 92 % 1015,2 hPa 0,0 mm W-NW 289 0,0 km/h (0 Bft)
12.09.2013 03:10 8,8 C 92 % 1015,2 hPa 0,0 mm W-NW 289 0,0 km/h (0 Bft)
12.09.2013 03:15 8,9 C 92 % 1015,2 hPa 0,0 mm W-NW 289 0,0 km/h (0 Bft)
12.09.2013 03:20 9,0 C 92 % 1015,2 hPa 0,0 mm W-NW 289 0,0 km/h (0 Bft)
12.09.2013 03:25 9,1 C 92 % 1015,2 hPa 0,0 mm W-NW 289 0,0 km/h (0 Bft)
12.09.2013 03:30 9,0 C 91 % 1015,1 hPa 0,0 mm W-NW 289 0,0 km/h (0 Bft)
12.09.2013 03:35 9,0 C 91 % 1015,0 hPa 0,0 mm W-NW 289 0,0 km/h (0 Bft)
12.09.2013 03:40 9,0 C 91 % 1014,9 hPa 0,0 mm W-NW 289 0,0 km/h (0 Bft)
12.09.2013 03:45 9,0 C 92 % 1014,8 hPa 0,0 mm W-NW 289 0,0 km/h (0 Bft)
12.09.2013 03:50 9,1 C 92 % 1014,8 hPa 0,0 mm W-NW 289 0,0 km/h (0 Bft)
12.09.2013 03:55 9,1 C 92 % 1014,8 hPa 0,0 mm W-NW 289 0,0 km/h (0 Bft)
12.09.2013 04:00 9,1 C 92 % 1014,8 hPa 0,0 mm W-NW 289 0,0 km/h (0 Bft)
12.09.2013 04:05 9,1 C 92 % 1014,8 hPa 0,0 mm W-NW 289 0,0 km/h (0 Bft)
12.09.2013 04:10 9,1 C 92 % 1014,8 hPa 0,0 mm W-NW 289 0,0 km/h (0 Bft)
12.09.2013 04:15 9,2 C 91 % 1014,8 hPa 0,0 mm W-NW 289 0,0 km/h (0 Bft)
12.09.2013 04:20 9,2 C 92 % 1014,8 hPa 0,0 mm W-NW 289 0,0 km/h (0 Bft)
12.09.2013 04:25 9,2 C 91 % 1014,7 hPa 0,0 mm W-NW 289 0,0 km/h (0 Bft)
12.09.2013 04:30 9,2 C 91 % 1014,7 hPa 0,0 mm W-NW 289 0,0 km/h (0 Bft)
12.09.2013 04:35 9,3 C 91 % 1014,6 hPa 0,0 mm W-NW 289 0,0 km/h (0 Bft)
12.09.2013 04:40 9,3 C 91 % 1014,6 hPa 0,0 mm W-NW 289 0,0 km/h (0 Bft)
12.09.2013 04:45 9,3 C 91 % 1014,5 hPa 0,0 mm W-NW 289 0,0 km/h (0 Bft)
12.09.2013 04:50 9,3 C 91 % 1014,5 hPa 0,0 mm W-NW 289 0,0 km/h (0 Bft)
12.09.2013 04:55 9,4 C 92 % 1014,5 hPa 0,0 mm W-NW 289 0,0 km/h (0 Bft)
12.09.2013 05:00 9,4 C 92 % 1014,5 hPa 0,0 mm W-NW 289 0,0 km/h (0 Bft)
12.09.2013 05:05 9,4 C 92 % 1014,4 hPa 0,0 mm W-NW 289 0,0 km/h (0 Bft)
12.09.2013 05:10 9,4 C 92 % 1014,5 hPa 0,0 mm W-NW 282 1,6 km/h (1 Bft)
12.09.2013 05:15 9,4 C 92 % 1014,4 hPa 0,0 mm W 281 0,0 km/h (0 Bft)
12.09.2013 05:20 9,4 C 92 % 1014,3 hPa 0,0 mm W 281 0,0 km/h (0 Bft)
12.09.2013 05:25 9,4 C 92 % 1014,4 hPa 0,0 mm W 281 0,0 km/h (0 Bft)
12.09.2013 05:30 9,5 C 92 % 1014,4 hPa 0,0 mm W 281 0,0 km/h (0 Bft)
12.09.2013 05:35 9,6 C 92 % 1014,3 hPa 0,0 mm W 281 0,0 km/h (0 Bft)
12.09.2013 05:40 9,6 C 92 % 1014,4 hPa 0,0 mm W 281 0,0 km/h (0 Bft)
12.09.2013 05:45 9,6 C 91 % 1014,4 hPa 0,0 mm W 281 0,0 km/h (0 Bft)
12.09.2013 05:50 9,6 C 91 % 1014,4 hPa 0,0 mm W 281 0,0 km/h (0 Bft)
12.09.2013 05:55 9,7 C 91 % 1014,4 hPa 0,0 mm W 281 0,0 km/h (0 Bft)
12.09.2013 06:00 9,7 C 91 % 1014,4 hPa 0,0 mm W 281 0,0 km/h (0 Bft)
12.09.2013 06:05 9,7 C 91 % 1014,5 hPa 0,0 mm W 280 0,0 km/h (0 Bft)
12.09.2013 06:10 9,7 C 91 % 1014,5 hPa 0,0 mm W 280 0,0 km/h (0 Bft)
12.09.2013 06:15 9,6 C 91 % 1014,5 hPa 0,0 mm W 275 0,0 km/h (0 Bft)
12.09.2013 06:20 9,7 C 91 % 1014,5 hPa 0,2 mm W 275 0,0 km/h (0 Bft)
12.09.2013 06:25 9,7 C 92 % 1014,4 hPa 0,0 mm W 275 0,0 km/h (0 Bft)
12.09.2013 06:30 9,6 C 91 % 1014,4 hPa 0,0 mm W 279 0,0 km/h (0 Bft)
12.09.2013 06:35 9,6 C 91 % 1014,4 hPa 0,0 mm W 276 0,0 km/h (0 Bft)
12.09.2013 06:40 9,5 C 91 % 1014,5 hPa 0,0 mm W 275 0,0 km/h (0 Bft)
12.09.2013 06:45 9,6 C 91 % 1014,4 hPa 0,0 mm W 275 0,0 km/h (0 Bft)
12.09.2013 06:50 9,6 C 91 % 1014,5 hPa 0,2 mm W 275 0,0 km/h (0 Bft)
12.09.2013 06:55 9,6 C 91 % 1014,5 hPa 0,0 mm W 276 0,0 km/h (0 Bft)
12.09.2013 07:00 9,6 C 91 % 1014,5 hPa 0,0 mm W 275 0,0 km/h (0 Bft)
12.09.2013 07:05 9,6 C 91 % 1014,6 hPa 0,0 mm W 277 0,0 km/h (0 Bft)
12.09.2013 07:10 9,6 C 91 % 1014,5 hPa 0,0 mm W 277 0,0 km/h (0 Bft)
12.09.2013 07:15 9,7 C 91 % 1014,5 hPa 0,0 mm W 277 0,0 km/h (0 Bft)
12.09.2013 07:20 9,7 C 91 % 1014,5 hPa 0,2 mm W 277 0,0 km/h (0 Bft)
12.09.2013 07:25 9,7 C 91 % 1014,7 hPa 0,0 mm W 277 0,0 km/h (0 Bft)
12.09.2013 07:30 9,7 C 91 % 1014,6 hPa 0,0 mm W 277 0,0 km/h (0 Bft)
12.09.2013 07:35 9,7 C 91 % 1014,6 hPa 0,0 mm W 277 0,0 km/h (0 Bft)
12.09.2013 07:40 9,8 C 91 % 1014,7 hPa 0,0 mm W 277 0,0 km/h (0 Bft)
12.09.2013 07:45 9,8 C 91 % 1014,7 hPa 0,0 mm W 277 0,0 km/h (0 Bft)
12.09.2013 07:50 9,8 C 91 % 1014,7 hPa 0,0 mm W 277 0,0 km/h (0 Bft)
12.09.2013 07:55 9,8 C 91 % 1014,8 hPa 0,0 mm W 277 0,0 km/h (0 Bft)
12.09.2013 08:00 9,8 C 91 % 1014,8 hPa 0,0 mm W 277 0,0 km/h (0 Bft)
12.09.2013 08:05 9,8 C 91 % 1014,8 hPa 0,0 mm W 277 0,0 km/h (0 Bft)
12.09.2013 08:10 9,8 C 91 % 1014,7 hPa 0,2 mm W 277 0,0 km/h (0 Bft)
12.09.2013 08:15 9,9 C 91 % 1014,7 hPa 0,0 mm W 277 0,0 km/h (0 Bft)
12.09.2013 08:20 9,9 C 91 % 1014,7 hPa 0,2 mm W 277 0,0 km/h (0 Bft)
12.09.2013 08:25 10,1 C 92 % 1014,6 hPa 0,0 mm W 277 0,0 km/h (0 Bft)
12.09.2013 08:30 10,2 C 91 % 1014,6 hPa 0,0 mm W 280 0,0 km/h (0 Bft)
12.09.2013 08:35 10,4 C 91 % 1014,7 hPa 0,0 mm W 280 0,0 km/h (0 Bft)
12.09.2013 08:40 10,6 C 92 % 1014,7 hPa 0,0 mm W 277 0,0 km/h (0 Bft)
12.09.2013 08:45 10,6 C 91 % 1014,7 hPa 0,0 mm W 277 0,0 km/h (0 Bft)
12.09.2013 08:50 10,7 C 91 % 1014,7 hPa 0,0 mm W 279 0,0 km/h (0 Bft)
12.09.2013 08:55 10,6 C 91 % 1014,7 hPa 0,0 mm W 277 0,0 km/h (0 Bft)
12.09.2013 09:00 10,7 C 91 % 1014,8 hPa 0,0 mm W 273 4,8 km/h (1 Bft)
12.09.2013 09:05 10,6 C 91 % 1014,9 hPa 0,0 mm W 275 11,3 km/h (2 Bft)
12.09.2013 09:10 10,5 C 91 % 1014,9 hPa 0,2 mm W-SW 254 6,4 km/h (2 Bft)
12.09.2013 09:15 10,5 C 91 % 1014,9 hPa 0,0 mm W 269 8,0 km/h (2 Bft)
12.09.2013 09:20 10,4 C 91 % 1014,9 hPa 0,2 mm W 268 4,8 km/h (1 Bft)
12.09.2013 09:25 10,5 C 91 % 1014,9 hPa 0,0 mm W 262 4,8 km/h (1 Bft)
12.09.2013 09:30 10,4 C 91 % 1014,9 hPa 0,0 mm W-SW 257 4,8 km/h (1 Bft)
12.09.2013 09:35 10,4 C 91 % 1014,9 hPa 0,0 mm W-SW 257 1,6 km/h (1 Bft)
12.09.2013 09:40 10,4 C 91 % 1015,0 hPa 0,0 mm W-SW 257 3,2 km/h (1 Bft)
12.09.2013 09:45 10,4 C 91 % 1015,1 hPa 0,0 mm W-SW 257 3,2 km/h (1 Bft)
12.09.2013 09:50 10,4 C 91 % 1015,1 hPa 0,0 mm W-SW 257 0,0 km/h (0 Bft)
12.09.2013 09:55 10,5 C 90 % 1015,1 hPa 0,0 mm W-SW 257 0,0 km/h (0 Bft)
12.09.2013 10:00 10,5 C 90 % 1015,1 hPa 0,0 mm W-SW 257 0,0 km/h (0 Bft)
12.09.2013 10:05 10,6 C 90 % 1015,2 hPa 0,0 mm W-SW 257 0,0 km/h (0 Bft)
12.09.2013 10:10 10,6 C 90 % 1015,2 hPa 0,0 mm W-SW 257 0,0 km/h (0 Bft)
12.09.2013 10:15 10,6 C 90 % 1015,1 hPa 0,0 mm W-SW 257 0,0 km/h (0 Bft)
12.09.2013 10:20 10,6 C 90 % 1015,2 hPa 0,0 mm W-SW 257 0,0 km/h (0 Bft)
12.09.2013 10:25 10,6 C 90 % 1015,2 hPa 0,0 mm W-SW 257 0,0 km/h (0 Bft)
12.09.2013 10:30 10,6 C 90 % 1015,2 hPa 0,0 mm W-SW 257 0,0 km/h (0 Bft)
12.09.2013 10:35 10,6 C 90 % 1015,2 hPa 0,0 mm W-SW 257 0,0 km/h (0 Bft)
12.09.2013 10:40 10,7 C 89 % 1015,3 hPa 0,0 mm W-SW 257 0,0 km/h (0 Bft)
12.09.2013 10:45 10,7 C 89 % 1015,4 hPa 0,0 mm W-SW 257 0,0 km/h (0 Bft)
12.09.2013 10:50 10,8 C 89 % 1015,4 hPa 0,0 mm W-SW 257 0,0 km/h (0 Bft)
12.09.2013 10:55 10,8 C 89 % 1015,4 hPa 0,0 mm W-SW 257 0,0 km/h (0 Bft)
12.09.2013 11:00 10,9 C 89 % 1015,5 hPa 0,0 mm W-SW 257 0,0 km/h (0 Bft)
12.09.2013 11:05 11,0 C 89 % 1015,5 hPa 0,0 mm W-SW 256 1,6 km/h (1 Bft)
12.09.2013 11:10 11,1 C 90 % 1015,6 hPa 0,0 mm W-SW 256 1,6 km/h (1 Bft)
12.09.2013 11:15 11,3 C 90 % 1015,6 hPa 0,2 mm W 260 3,2 km/h (1 Bft)
12.09.2013 11:20 11,4 C 90 % 1015,6 hPa 0,0 mm W 279 4,8 km/h (1 Bft)
12.09.2013 11:25 11,4 C 90 % 1015,6 hPa 0,0 mm W-NW 289 9,7 km/h (2 Bft)
12.09.2013 11:30 11,4 C 89 % 1015,6 hPa 0,2 mm W 261 6,4 km/h (2 Bft)
12.09.2013 11:35 11,4 C 89 % 1015,6 hPa 0,0 mm W-NW 282 8,0 km/h (2 Bft)
12.09.2013 11:40 11,3 C 89 % 1015,5 hPa 0,0 mm W 273 14,5 km/h (3 Bft)
12.09.2013 11:45 11,3 C 90 % 1015,4 hPa 0,0 mm W-NW 282 8,0 km/h (2 Bft)
12.09.2013 11:50 11,3 C 90 % 1015,5 hPa 0,2 mm W 271 6,4 km/h (2 Bft)
12.09.2013 11:55 11,3 C 90 % 1015,5 hPa 0,0 mm W 271 9,7 km/h (2 Bft)
12.09.2013 12:00 11,2 C 90 % 1015,6 hPa 0,2 mm W 275 9,7 km/h (2 Bft)
12.09.2013 12:05 11,2 C 90 % 1015,6 hPa 0,0 mm W-SW 247 6,4 km/h (2 Bft)
12.09.2013 12:10 11,2 C 90 % 1015,6 hPa 0,2 mm W 267 8,0 km/h (2 Bft)
12.09.2013 12:15 11,2 C 90 % 1015,6 hPa 0,0 mm W-NW 282 8,0 km/h (2 Bft)
12.09.2013 12:20 11,3 C 90 % 1015,7 hPa 0,0 mm W 269 6,4 km/h (2 Bft)
12.09.2013 12:25 11,4 C 90 % 1015,7 hPa 0,0 mm W 269 4,8 km/h (1 Bft)
12.09.2013 12:30 11,7 C 90 % 1015,7 hPa 0,0 mm W-NW 285 6,4 km/h (2 Bft)
12.09.2013 12:35 11,7 C 90 % 1015,8 hPa 0,2 mm W 278 9,7 km/h (2 Bft)
12.09.2013 12:40 11,8 C 90 % 1015,8 hPa 0,0 mm W 278 6,4 km/h (2 Bft)
12.09.2013 12:45 11,8 C 90 % 1015,8 hPa 0,0 mm W-NW 286 11,3 km/h (2 Bft)
12.09.2013 12:50 11,6 C 90 % 1015,9 hPa 0,0 mm NW 308 12,9 km/h (3 Bft)
12.09.2013 12:55 11,4 C 90 % 1015,9 hPa 0,2 mm W-SW 237 17,7 km/h (3 Bft)
12.09.2013 13:00 11,2 C 90 % 1015,8 hPa 0,2 mm W 266 17,7 km/h (3 Bft)
12.09.2013 13:05 11,1 C 89 % 1015,9 hPa 0,0 mm W 266 11,3 km/h (2 Bft)
12.09.2013 13:10 10,9 C 89 % 1015,9 hPa 0,2 mm W-SW 257 17,7 km/h (3 Bft)
12.09.2013 13:15 10,6 C 89 % 1016,0 hPa 0,4 mm W 263 16,1 km/h (3 Bft)
12.09.2013 13:20 10,6 C 90 % 1016,0 hPa 0,2 mm W 265 12,9 km/h (3 Bft)
12.09.2013 13:25 10,8 C 91 % 1015,9 hPa 0,0 mm W 266 9,7 km/h (2 Bft)
12.09.2013 13:30 11,1 C 91 % 1015,8 hPa 0,0 mm W 273 12,9 km/h (3 Bft)
12.09.2013 13:35 11,7 C 91 % 1015,8 hPa 0,0 mm W 269 12,9 km/h (3 Bft)
12.09.2013 13:40 11,7 C 89 % 1015,8 hPa 0,0 mm W 269 16,1 km/h (3 Bft)
12.09.2013 13:45 11,6 C 89 % 1015,8 hPa 0,0 mm W 281 19,3 km/h (3 Bft)
12.09.2013 13:50 11,6 C 89 % 1015,7 hPa 0,0 mm W 268 16,1 km/h (3 Bft)
12.09.2013 13:55 12,0 C 90 % 1015,7 hPa 0,0 mm W 277 14,5 km/h (3 Bft)
12.09.2013 14:00 12,7 C 89 % 1015,6 hPa 0,0 mm W-NW 290 12,9 km/h (3 Bft)
12.09.2013 14:05 13,2 C 87 % 1015,6 hPa 0,0 mm W 277 14,5 km/h (3 Bft)
12.09.2013 14:10 13,1 C 87 % 1015,6 hPa 0,0 mm W 271 14,5 km/h (3 Bft)
12.09.2013 14:15 12,9 C 86 % 1015,6 hPa 0,0 mm W-NW 288 8,0 km/h (2 Bft)
12.09.2013 14:20 12,8 C 86 % 1015,6 hPa 0,0 mm W-NW 284 16,1 km/h (3 Bft)
12.09.2013 14:25 12,6 C 86 % 1015,6 hPa 0,0 mm W 275 17,7 km/h (3 Bft)
12.09.2013 14:30 12,4 C 85 % 1015,6 hPa 0,0 mm W 265 12,9 km/h (3 Bft)
12.09.2013 14:35 12,5 C 87 % 1015,7 hPa 0,0 mm W 274 9,7 km/h (2 Bft)
12.09.2013 14:40 12,4 C 87 % 1015,7 hPa 0,0 mm W-NW 294 11,3 km/h (2 Bft)
12.09.2013 14:45 12,4 C 87 % 1015,7 hPa 0,2 mm W 263 9,7 km/h (2 Bft)
12.09.2013 14:50 12,4 C 88 % 1015,7 hPa 0,0 mm W 265 9,7 km/h (2 Bft)
12.09.2013 14:55 12,4 C 88 % 1015,8 hPa 0,0 mm W-SW 257 14,5 km/h (3 Bft)
12.09.2013 15:00 12,3 C 87 % 1015,8 hPa 0,0 mm W 271 14,5 km/h (3 Bft)
12.09.2013 15:05 12,1 C 88 % 1015,8 hPa 0,0 mm W 263 12,9 km/h (3 Bft)
12.09.2013 15:10 12,0 C 88 % 1015,8 hPa 0,2 mm W 261 16,1 km/h (3 Bft)
12.09.2013 15:15 11,9 C 89 % 1015,9 hPa 0,0 mm W 259 12,9 km/h (3 Bft)
12.09.2013 15:20 11,8 C 89 % 1016,1 hPa 0,0 mm W 266 17,7 km/h (3 Bft)
12.09.2013 15:25 11,6 C 87 % 1016,1 hPa 0,0 mm W-NW 287 20,9 km/h (4 Bft)
12.09.2013 15:30 11,5 C 88 % 1016,2 hPa 0,0 mm W 268 14,5 km/h (3 Bft)
12.09.2013 15:35 11,4 C 87 % 1016,2 hPa 0,2 mm W-NW 294 16,1 km/h (3 Bft)
12.09.2013 15:40 11,3 C 86 % 1016,3 hPa 0,0 mm W-NW 285 17,7 km/h (3 Bft)
12.09.2013 15:45 11,1 C 85 % 1016,5 hPa 0,0 mm W 276 20,9 km/h (4 Bft)
12.09.2013 15:50 10,9 C 87 % 1016,4 hPa 0,2 mm W-NW 283 19,3 km/h (3 Bft)
12.09.2013 15:55 10,6 C 87 % 1016,5 hPa 0,0 mm W-NW 287 17,7 km/h (3 Bft)
12.09.2013 16:00 10,5 C 87 % 1016,6 hPa 0,0 mm W 259 22,5 km/h (4 Bft)
12.09.2013 16:05 10,6 C 88 % 1016,6 hPa 0,0 mm W 276 16,1 km/h (3 Bft)
12.09.2013 16:10 10,6 C 88 % 1016,6 hPa 0,0 mm W-SW 257 12,9 km/h (3 Bft)
12.09.2013 16:15 10,6 C 88 % 1016,7 hPa 0,0 mm W 269 14,5 km/h (3 Bft)
12.09.2013 16:20 10,5 C 87 % 1016,8 hPa 0,0 mm W 267 17,7 km/h (3 Bft)
12.09.2013 16:25 10,4 C 87 % 1016,8 hPa 0,0 mm W-SW 253 17,7 km/h (3 Bft)
12.09.2013 16:30 10,2 C 86 % 1016,8 hPa 0,0 mm W-NW 285 19,3 km/h (3 Bft)
12.09.2013 16:35 10,0 C 87 % 1016,8 hPa 0,0 mm W 280 16,1 km/h (3 Bft)
12.09.2013 16:40 9,9 C 87 % 1016,7 hPa 0,0 mm W 265 14,5 km/h (3 Bft)
12.09.2013 16:45 9,9 C 88 % 1016,7 hPa 0,0 mm W 263 9,7 km/h (2 Bft)
12.09.2013 16:50 9,8 C 88 % 1016,7 hPa 0,0 mm W-NW 284 11,3 km/h (2 Bft)
12.09.2013 16:55 9,9 C 89 % 1016,7 hPa 0,0 mm W 273 8,0 km/h (2 Bft)
12.09.2013 17:00 10,1 C 89 % 1016,7 hPa 0,0 mm W-NW 284 11,3 km/h (2 Bft)
12.09.2013 17:05 10,3 C 88 % 1016,7 hPa 0,0 mm W 269 14,5 km/h (3 Bft)
12.09.2013 17:10 10,5 C 88 % 1016,7 hPa 0,0 mm W 270 8,0 km/h (2 Bft)
12.09.2013 17:15 10,6 C 88 % 1016,7 hPa 0,0 mm W 259 9,7 km/h (2 Bft)
12.09.2013 17:20 10,4 C 87 % 1016,7 hPa 0,0 mm W 261 11,3 km/h (2 Bft)
12.09.2013 17:25 10,4 C 87 % 1016,6 hPa 0,0 mm W 276 8,0 km/h (2 Bft)
12.09.2013 17:30 10,4 C 88 % 1016,7 hPa 0,0 mm W 273 9,7 km/h (2 Bft)
12.09.2013 17:35 10,4 C 87 % 1016,6 hPa 0,0 mm W 267 8,0 km/h (2 Bft)
12.09.2013 17:40 10,4 C 87 % 1016,7 hPa 0,0 mm W 270 8,0 km/h (2 Bft)
12.09.2013 17:45 10,4 C 87 % 1016,7 hPa 0,0 mm W-NW 290 6,4 km/h (2 Bft)
12.09.2013 17:50 10,6 C 88 % 1016,8 hPa 0,0 mm W-NW 283 12,9 km/h (3 Bft)
12.09.2013 17:55 10,7 C 87 % 1016,9 hPa 0,0 mm W 269 11,3 km/h (2 Bft)
12.09.2013 18:00 10,6 C 87 % 1016,9 hPa 0,0 mm W 279 9,7 km/h (2 Bft)
12.09.2013 18:05 10,6 C 87 % 1016,9 hPa 0,0 mm W-SW 251 6,4 km/h (2 Bft)
12.09.2013 18:10 10,4 C 87 % 1017,0 hPa 0,0 mm W 274 9,7 km/h (2 Bft)
12.09.2013 18:15 10,3 C 87 % 1017,1 hPa 0,0 mm W 277 9,7 km/h (2 Bft)
12.09.2013 18:20 10,2 C 87 % 1017,2 hPa 0,0 mm W-NW 285 8,0 km/h (2 Bft)
12.09.2013 18:25 10,2 C 87 % 1017,2 hPa 0,0 mm W 273 8,0 km/h (2 Bft)
12.09.2013 18:30 10,2 C 87 % 1017,1 hPa 0,0 mm W 273 8,0 km/h (2 Bft)
12.09.2013 18:35 10,2 C 87 % 1017,1 hPa 0,0 mm W 271 9,7 km/h (2 Bft)
12.09.2013 18:40 10,2 C 86 % 1017,2 hPa 0,0 mm W 280 12,9 km/h (3 Bft)
12.09.2013 18:45 10,2 C 87 % 1017,1 hPa 0,0 mm W 267 6,4 km/h (2 Bft)
12.09.2013 18:50 10,2 C 87 % 1017,3 hPa 0,0 mm W 275 6,4 km/h (2 Bft)
12.09.2013 18:55 10,2 C 87 % 1017,4 hPa 0,0 mm W 270 6,4 km/h (2 Bft)
12.09.2013 19:00 10,1 C 87 % 1017,4 hPa 0,0 mm W-NW 283 6,4 km/h (2 Bft)
12.09.2013 19:05 10,0 C 87 % 1017,3 hPa 0,0 mm W 275 8,0 km/h (2 Bft)
12.09.2013 19:10 9,9 C 87 % 1017,4 hPa 0,0 mm W 266 6,4 km/h (2 Bft)
12.09.2013 19:15 9,8 C 87 % 1017,5 hPa 0,0 mm W 273 6,4 km/h (2 Bft)
12.09.2013 19:20 9,7 C 88 % 1017,5 hPa 0,0 mm W-NW 298 6,4 km/h (2 Bft)
12.09.2013 19:25 9,6 C 88 % 1017,5 hPa 0,0 mm W 272 6,4 km/h (2 Bft)
12.09.2013 19:30 9,4 C 88 % 1017,6 hPa 0,0 mm W-NW 286 6,4 km/h (2 Bft)
12.09.2013 19:35 9,3 C 88 % 1017,6 hPa 0,0 mm W 276 6,4 km/h (2 Bft)
12.09.2013 19:40 9,3 C 88 % 1017,6 hPa 0,0 mm W 275 8,0 km/h (2 Bft)
12.09.2013 19:45 9,2 C 88 % 1017,7 hPa 0,0 mm W 275 4,8 km/h (1 Bft)
12.09.2013 19:50 9,2 C 88 % 1017,8 hPa 0,0 mm W 274 6,4 km/h (2 Bft)
12.09.2013 19:55 9,2 C 88 % 1017,8 hPa 0,0 mm W 273 8,0 km/h (2 Bft)
12.09.2013 20:00 9,1 C 88 % 1017,9 hPa 0,0 mm W 272 4,8 km/h (1 Bft)
12.09.2013 20:05 9,1 C 88 % 1017,9 hPa 0,0 mm W 277 3,2 km/h (1 Bft)
12.09.2013 20:10 9,1 C 88 % 1018,0 hPa 0,0 mm W 277 3,2 km/h (1 Bft)
12.09.2013 20:15 9,2 C 88 % 1018,1 hPa 0,0 mm W 277 1,6 km/h (1 Bft)
12.09.2013 20:20 9,2 C 88 % 1018,1 hPa 0,0 mm W 277 4,8 km/h (1 Bft)
12.09.2013 20:25 9,2 C 88 % 1018,2 hPa 0,0 mm W 277 1,6 km/h (1 Bft)
12.09.2013 20:30 9,0 C 88 % 1018,2 hPa 0,0 mm W 277 3,2 km/h (1 Bft)
12.09.2013 20:35 8,9 C 89 % 1018,2 hPa 0,0 mm W 277 1,6 km/h (1 Bft)
12.09.2013 20:40 8,8 C 89 % 1018,3 hPa 0,0 mm W 277 1,6 km/h (1 Bft)
12.09.2013 20:45 8,7 C 89 % 1018,4 hPa 0,0 mm W 277 3,2 km/h (1 Bft)
12.09.2013 20:50 8,7 C 90 % 1018,5 hPa 0,0 mm W 277 3,2 km/h (1 Bft)
12.09.2013 20:55 8,7 C 90 % 1018,5 hPa 0,0 mm W 277 1,6 km/h (1 Bft)
12.09.2013 21:00 8,8 C 90 % 1018,5 hPa 0,0 mm W 277 3,2 km/h (1 Bft)
12.09.2013 21:05 8,8 C 90 % 1018,6 hPa 0,0 mm W 277 1,6 km/h (1 Bft)
12.09.2013 21:10 8,9 C 90 % 1018,5 hPa 0,0 mm W 270 1,6 km/h (1 Bft)
12.09.2013 21:15 8,9 C 89 % 1018,6 hPa 0,0 mm W 270 1,6 km/h (1 Bft)
12.09.2013 21:20 9,0 C 90 % 1018,6 hPa 0,0 mm N 0 0,0 km/h (0 Bft)
12.09.2013 21:25 9,0 C 90 % 1018,7 hPa 0,0 mm W 277 0,0 km/h (0 Bft)
12.09.2013 21:30 9,0 C 90 % 1018,7 hPa 0,0 mm W 277 0,0 km/h (0 Bft)
12.09.2013 21:35 9,0 C 90 % 1018,7 hPa 0,0 mm W 277 0,0 km/h (0 Bft)
12.09.2013 21:40 9,1 C 90 % 1018,8 hPa 0,0 mm W 277 0,0 km/h (0 Bft)
12.09.2013 21:45 9,1 C 90 % 1018,7 hPa 0,0 mm W 277 0,0 km/h (0 Bft)
12.09.2013 21:50 9,2 C 90 % 1018,8 hPa 0,0 mm W 277 0,0 km/h (0 Bft)
12.09.2013 21:55 9,2 C 89 % 1018,8 hPa 0,0 mm W 277 0,0 km/h (0 Bft)
12.09.2013 22:00 9,2 C 90 % 1018,8 hPa 0,0 mm W 277 0,0 km/h (0 Bft)
12.09.2013 22:05 9,2 C 90 % 1018,8 hPa 0,0 mm W 277 0,0 km/h (0 Bft)
12.09.2013 22:10 9,2 C 90 % 1018,9 hPa 0,0 mm W 277 0,0 km/h (0 Bft)
12.09.2013 22:15 9,2 C 89 % 1018,9 hPa 0,0 mm W 277 0,0 km/h (0 Bft)
12.09.2013 22:20 9,3 C 89 % 1018,9 hPa 0,0 mm W 277 0,0 km/h (0 Bft)
12.09.2013 22:25 9,3 C 90 % 1018,9 hPa 0,0 mm W 277 0,0 km/h (0 Bft)
12.09.2013 22:30 9,4 C 90 % 1018,9 hPa 0,0 mm W 277 0,0 km/h (0 Bft)
12.09.2013 22:35 9,4 C 89 % 1018,9 hPa 0,0 mm W 277 4,8 km/h (1 Bft)
12.09.2013 22:40 9,4 C 89 % 1018,9 hPa 0,0 mm W 281 4,8 km/h (1 Bft)
12.09.2013 22:45 9,4 C 89 % 1018,9 hPa 0,0 mm W 273 6,4 km/h (2 Bft)
12.09.2013 22:50 9,4 C 89 % 1019,0 hPa 0,2 mm W 262 8,0 km/h (2 Bft)
12.09.2013 22:55 9,3 C 89 % 1019,1 hPa 0,2 mm W-NW 293 9,7 km/h (2 Bft)
12.09.2013 23:00 9,2 C 90 % 1019,0 hPa 0,2 mm W 265 6,4 km/h (2 Bft)
12.09.2013 23:05 9,2 C 90 % 1019,0 hPa 0,0 mm W 265 3,2 km/h (1 Bft)
12.09.2013 23:10 9,1 C 90 % 1019,1 hPa 0,0 mm W 275 3,2 km/h (1 Bft)
12.09.2013 23:15 9,1 C 90 % 1019,0 hPa 0,2 mm W 271 4,8 km/h (1 Bft)
12.09.2013 23:20 9,0 C 90 % 1019,1 hPa 0,0 mm W 273 6,4 km/h (2 Bft)
12.09.2013 23:25 9,0 C 91 % 1019,1 hPa 0,0 mm W 265 3,2 km/h (1 Bft)
12.09.2013 23:30 9,0 C 91 % 1019,1 hPa 0,0 mm W 265 1,6 km/h (1 Bft)
12.09.2013 23:35 9,0 C 91 % 1019,1 hPa 0,0 mm W 265 1,6 km/h (1 Bft)
12.09.2013 23:40 9,0 C 91 % 1019,0 hPa 0,0 mm W 265 4,8 km/h (1 Bft)
12.09.2013 23:45 9,0 C 91 % 1019,0 hPa 0,0 mm W 265 4,8 km/h (1 Bft)
12.09.2013 23:50 9,0 C 91 % 1019,0 hPa 0,0 mm W 262 4,8 km/h (1 Bft)
12.09.2013 23:55 9,0 C 91 % 1019,0 hPa 0,0 mm W 267 3,2 km/h (1 Bft)
_ Min-Zeit 02:10 14:30 05:20 - - - 00:00
Minimum _ 7,6 C 85 % 1014,3 hPa - - - 0,0 km/h (0 Bft)
_ Max-Zeit 14:10 02:15 22:55 13:15 - - 16:00
Maximum _ 13,3 C 92 % 1019,1 hPa 0,4 mm - - 22,5 km/h
W (4 Bft)
Durchschnitt _ 10,0 C 90 % 1016,1 hPa #5,4 mm W - 4,8 km/h (1 Bft)